Other Public Products
Issued by NWS Grand Forks, ND

Home | Current Version | Previous Version | Text Only | Print | Product List | Glossary Off
Versions: 1 2 3 4 5 6 7 8 9 10 11 12 13 14 15 16 17 18 19 20 21 22 23 24 25 26 27 28 29 30 31 32 33 34 35 36 37 38 39 40 41 42 43 44 45 46 47 48 49 50

000
FPUS83 KFGF 282110
OPUFGF
PRAIRIE TO PINES WEATHER ROUNDUP
NATIONAL WEATHER SERVICE EASTERN NORTH DAKOTA/GRAND FORKS ND
400 PM CDT SAT MAR 28 2015

 **SATELLITE DATA USED TO AUGMENT SKY COVER AT AUTOMATED STATIONS**
 *****  WEATHER ACROSS EASTERN NORTH DAKOTA  *****

CITY           SKY/WX    TMP DP  RH WIND       PRES   REMARKS
GRAND FORKS    PTSUNNY   48  30  49 S29G40    29.81F
GRAND FORKS AF MOSUNNY   47  31  53 S25G33    29.80F
GRAND CITY NWS   N/A     46 N/A N/A S21         N/A
BUXTON         NOT AVBL
DEVILS LAKE    PTSUNNY   46  39  76 S25G32    29.70F
FARGO          SUNNY     52  27  38 S26G33    29.88F
WAHPETON ARPT  CLEAR     48  27  43 S24G32    29.92F
$$

 *****  WEATHER ACROSS CENTRAL AND WESTERN NORTH DAKOTA  *****

CITY           SKY/WX    TMP DP  RH WIND       PRES   REMARKS
JAMESTOWN      SUNNY     51  35  54 S29G37    29.75F
BISMARCK       SUNNY     64  35  34 S21G26    29.65F
MINOT          LGT RAIN  61  38  42 S24G38    29.52F
MINOT AFB      PTSUNNY   60  46  59 S23       29.50F
GARRISON         N/A     62  40  44 S18G26    29.56F
WILLISTON      PTSUNNY   78  36  21 SW17G24   29.44F
DICKINSON      MOSUNNY   78  33  19 SW24G32   29.53F
HETTINGER      SUNNY     77  32  19 S22G30    29.61F
$$

 *****  OTHER OBSERVATIONS NORTHEAST NORTH DAKOTA  *****

CITY           SKY/WX    TMP DP  RH WIND       PRES   REMARKS
WALHALLA         N/A     45  37  76 S18G31    29.71F
LANGDON        NOT AVBL
CAVALIER       FAIR      43  36  75 S24G31    29.73F
GRAFTON        NOT AVBL
CANDO          NOT AVBL
FORT TOTTEN      N/A     47  38  72 S18       29.95S
ROLLA          FAIR      48  45  87 S26G35    29.61F
RUGBY          FAIR      55  39  54 S23G31    29.59F
 ***** THE ABOVE OBSERVATIONS ARE NON NWS ARE NOT QUALITY
        CONTROLLED AND MAY MIS-REPORT RAIN FOR SNOW...
$$

 *****  OTHER OBSERVATIONS SOUTHEAST NORTH DAKOTA *****

CITY           SKY/WX    TMP DP  RH WIND       PRES   REMARKS
COOPERSTOWN    NOT AVBL
VALLEY CITY    FAIR      50  36  57 S24G31    29.80F
OAKES            N/A     52  36  54 S24G33    29.83F
GWINNER        CLEAR     52  32  46 S23G29      N/A
SHEYENNE NWR     N/A     51  33  49 S18       29.95
BUFFALO        NOT AVBL
WYNDMERE         N/A     50  34  53 S18         N/A
 ***** THE ABOVE OBSERVATIONS ARE NON NWS ARE NOT QUALITY
       CONTROLLED AND MAY MIS-REPORT RAIN FOR SNOW...
$$

  *****  WEATHER ACROSS NORTHERN MINNESOTA  *****

CITY           SKY/WX    TMP DP  RH WIND       PRES   REMARKS
FLAG ISLAND    MOSUNNY   37  27  65 S18       29.83F
WARROAD        MOSUNNY   45  30  57 SW18G26   29.85F
ROSEAU         PTSUNNY   45  30  57 S21       29.84F
HALLOCK        PTSUNNY   46  30  53 S24G35    29.78F
THF RVR FALLS  SUNNY     45  28  53 S25G31    29.86F
HALSTAD        NOT AVBL
FOSSTON        SUNNY     45  25  45 S25       29.90F
BAUDETTE       MOSUNNY   44  21  40 SW21G28   29.88F
WASKISH        SUNNY     46  21  36 S10G20    29.90F
CROOKSTON      SUNNY     48  27  43 S29G38    29.87F
$$
  *****  WEATHER ACROSS CENTRAL AND WEST MINNESOTA  *****

CITY           SKY/WX    TMP DP  RH WIND       PRES   REMARKS
BEMIDJI        SUNNY     44  23  42 S13G24    29.92F
PARK RAPIDS    SUNNY     49  22  34 S24G31    29.96F
WADENA         MOSUNNY   43  25  49 S17G28    29.98F
DETROIT LAKES  SUNNY     43  28  56 S23G30    29.94F
MOORHEAD       SUNNY     48  27  43 S22G35    29.91F
FERGUS FALLS   SUNNY     45  25  45 S24G32    29.97F
ELBOW LAKE     MOCLDY    44  29  55 S29G35    29.96F
MORRIS MN      MOSUNNY   46  32  57 S24G32    29.97F
STAPLES        SUNNY     43  21  42 S21G26    30.00F
WHEATON        SUNNY     46  28  49 SE23G32   29.95F
$$
  *****  WEATHER ELSEWHERE ACROSS MINNESOTA  *****

CITY           SKY/WX    TMP DP  RH WIND       PRES   REMARKS
DULUTH         SUNNY     42   9  25 S18G25    30.04F
INTRNTL FALLS  SUNNY     44  12  27 S14G23    29.92F
ELY            SUNNY     43   3  19 S13G20    29.99F
CLOQUET        SUNNY     43   1  17 S14G22    30.04F
BRAINERD       SUNNY     43  19  38 S22G32    30.03F
HIBBING        SUNNY     43   6  21 SW17G23   30.00F
ALEXANDRIA     CLOUDY    40  26  57 S18G29    30.01F
SAINT CLOUD    SUNNY     43  20  39 S22G28    30.07F
MINNEAPOLIS    MOSUNNY   40  20  44 S15G23    30.15F
$$

  *****  WEATHER ACROSS SOUTH DAKOTA  *****

CITY           SKY/WX    TMP DP  RH WIND       PRES   REMARKS
SIOUX FALLS    SUNNY     52  27  38 S20G32    29.99F
BROOKINGS      NOT AVBL
WATERTOWN      SUNNY     51  28  41 S21G29    29.91F
HURON          SUNNY     55  29  36 SE20G31   29.89F
SISSETON         N/A     52  32  46 S23G31    29.89F
ABERDEEN       SUNNY     56  31  38 S25G31    29.84F
MITCHELL       SUNNY     57  31  37 SE24G33   29.93F
PIERRE         SUNNY     71  36  27 SE24G32   29.74F
MOBRIDGE       SUNNY     65  35  33 S24G32    29.71F
RAPID CITY     SUNNY     82  25  12 SW23G32   29.65F
$$

  *****  SOME WEATHER IN NEARBY STATES *****

CITY           SKY/WX    TMP DP  RH WIND       PRES   REMARKS
GLASGOW MT     LGT RAIN  62  43  49 NW39G51   29.57R
GREAT FALLS MT MOSUNNY   55  22  27 W44G58    29.81S
CHEYENNE WY    MOSUNNY   73  20  13 W23G31    29.97F
SCOTTSBLUFF NE SUNNY     81  25  12 W16G25    29.82F
OMAHA NE       MOSUNNY   53  28  38 S15G24    30.08F
DES MOINES IA  MOSUNNY   49  15  25 SE12G18   30.16F
DAVENPORT IA   SUNNY     40  10  29 S5        30.27F
CHICAGO IL     SUNNY     36   7  29 E7        30.30F
EAU CLAIRE WI  SUNNY     43   8  23 SW10G20   30.16F
LA CROSSE WI   SUNNY     43  11  27 S9        30.22F
$$

  *****  SOME NATIONAL WEATHER *****

CITY           SKY/WX    TMP DP  RH WIND       PRES   REMARKS
LA GUARDIA NY  PTSUNNY   38  22  52 N13       29.87R
RALEIGH NC     MOSUNNY   45  12  26 NW12G21   30.05R
ATLANTA GA     MOSUNNY   52  14  22 NW14G21   30.13S
NEW ORLEANS LA MOSUNNY   69  44  40 SE6       30.16F
OKLAHOMA CITY  MOSUNNY   76  45  33 VRB5      29.97F
ALBUQUERQUE NM SUNNY     77  20  12 W17       30.14F
SALT LAKE CITY PTSUNNY   72  24  16 NW14G23   30.10F
LOS ANGELES CA MOSUNNY   69  59  70 W9        30.05F
BOISE ID       SUNNY     59  29  31 NW14G25   30.28F
SEATTLE WA     PTSUNNY   58  42  55 SW14G23   30.34R
$$

*** WEATHER ACROSS MANITOBA...SASKATCHEWAN AND ONTARIO ***
                ***ONTARIO***

CITY           SKY/WX    TMP DP  RH WIND       PRES   REMARKS
GERALDTON      PTSUNNY   36   3  25 SW15G29   29.98F
THUNDER BAY    MOSUNNY   39  14  35 S17G26    30.04F
SIOUX LOOKOUT  CLOUDY    39  10  30 SW13G23   29.88F
TORONTO        MOSUNNY   30   0  27 N17G24    30.16S WCI  18
BIG TROUT LK   MOSUNNY   37  23  56 SW12G20   29.66F
PICKLE LAKE    PTSUNNY   37  10  32 SW21G33   29.81F
DRYDEN         SUNNY     39  12  33 SW22G28   29.87F
KENORA         PTSUNNY   39  19  45 S15G25    29.83F
$$
                *** MANITOBA***

CITY           SKY/WX    TMP DP  RH WIND       PRES   REMARKS
BRANDON        PTSUNNY   43  36  75 S14       29.56F
DAUPHIN        SUNNY     46  36  66 SW9       29.45F
ISLAND LAKE    CLOUDY    39  25  56 S13G20    29.58F
PILOT MOUND      N/A     41  37  87 S26G37      N/A
THE PAS        CLOUDY    41  30  65 NE5       29.43F
THOMPSON       LGT SNOW  32  30  93 SW6       29.47F
WINNIPEG       PTSUNNY   45  32  61 S29G41    29.71F
LYNN LAKE      CLOUDY    37  34  87 NW8       29.44R
CHURCHILL      CLOUDY    37  28  70 SW13      29.37S
GILLAM         SNOW      32  30  93 SW13      29.49F VSB 3/8 WCI  22
$$
                ***SASKATCHEWAN***

CITY           SKY/WX    TMP DP  RH WIND       PRES   REMARKS
ESTEVAN        NOT AVBL
KINDERSLEY     LGT RAIN  43  39  87 NW20      29.60R
LLOYDMINSTER   CLOUDY    45  39  81 NW12G20   29.65R
PRINCE ALBERT  CLOUDY    43  36  75 N10       29.50R
REGINA         CLOUDY    55  45  67 NW14      29.45R



USA.gov is the U.S. government's official web portal to all federal, state and local government web resources and services.